Weather History for K8D3 - January, 2013

Change the Weather History Date:

Thursday, January 10, 2013

  Actual Average Record
Temperature  
Mean Temperature 38 °F 13 °F  
Max Temperature 43 °F 23 °F 55 °F (2012)
Min Temperature 33 °F 3 °F -28 °F (1982)
Degree Days  
Heating Degree Days 27 52  
Month to date heating degree days 427 520  
Since 1 July heating degree days 3802 3859  
Cooling Degree Days 0 0  
Month to date cooling degree days 0 0  
Year to date cooling degree days 0 0  
Moisture  
Dew Point 29 °F    
Average Humidity 77    
Maximum Humidity 100    
Minimum Humidity 53    
Precipitation  
Precipitation 0.03 in 0.02 in 0.62 in (1976)
Month to date precipitation 0.05 0.16  
Year to date precipitation 0.05 0.16  
Snow  
Snow 0.00 in - - ()
Month to date snowfall 0.2  
Since 1 July snowfall 9.2  
Snow Depth 1.00 in    
Sea Level Pressure  
Sea Level Pressure 29.85 in    
Wind  
Wind Speed 24 mph (SSW)    
Max Wind Speed 44 mph    
Max Gust Speed 61 mph    
T = Trace of Precipitation, MM = Missing Value Source: NWS Daily Summary

Daily Weather History Graph

Daily Weather History Graph

Search for Another Location

Airport or City:

Trip Planner

Search our weather history database for the weather conditions in past years. The results will help you decide how hot, cold, wet, or windy it might be!

Date:

Astronomy

Jan. 10, 2013 Rise Set
Actual Time 8:07 AM CST 5:04 PM CST
Civil Twilight 7:33 AM CST 5:38 PM CST
Nautical Twilight 6:56 AM CST 6:15 PM CST
Astronomical Twilight 6:20 AM CST 6:51 PM CST
Moon 6:47 AM CST (1/10) 4:14 PM CST (1/10)
Length of Visible Light 10h 04m
Length of Day
8h 57m
Waning Crescent, 2% of the Moon is Illuminated
Jan 10
Waning Crescent
Jan 11
New
Jan 18
First Quarter
Jan 26
Full
Feb 3
Last Quarter

Hourly Weather History & Observations

Time (CST) Temp. Windchill Dew Point Humidity Pressure Visibility Wind Dir Wind Speed Gust Speed Precip Events Conditions
12:56 AM 39.9 °F 30.8 °F 28.0 °F 63% 30.05 in - SW 18.4 mph 28.8 mph N/A   Unknown
1:56 AM 39.9 °F 28.2 °F 27.0 °F 60% 30.04 in - SW 31.1 mph 39.1 mph N/A   Unknown
2:56 AM 39.9 °F 28.4 °F 28.0 °F 63% 30.03 in - SW 29.9 mph 40.3 mph N/A   Unknown
3:56 AM 41.0 °F 29.5 °F 27.0 °F 57% 30.00 in - SW 32.2 mph 47.2 mph N/A   Unknown
4:56 AM 42.1 °F 31.0 °F 27.0 °F 55% 29.96 in - WSW 32.2 mph 43.7 mph N/A   Unknown
5:56 AM 42.1 °F 30.0 °F 27.0 °F 55% 29.94 in - WSW 39.1 mph 55.2 mph N/A   Unknown
6:56 AM 41.0 °F 29.1 °F 27.0 °F 57% 29.98 in - SW 34.5 mph 44.9 mph N/A   Unknown
7:56 AM 39.9 °F 28.4 °F 27.0 °F 60% 29.99 in - SW 29.9 mph 39.1 mph N/A   Unknown
8:56 AM 39.0 °F 26.8 °F 27.0 °F 62% 29.98 in - SW 32.2 mph 44.9 mph N/A   Unknown
9:56 AM 39.0 °F 27.0 °F 26.1 °F 60% 29.99 in - SW 31.1 mph 42.6 mph N/A   Unknown
10:56 AM 39.0 °F 28.0 °F 26.1 °F 60% 29.97 in - South 25.3 mph 32.2 mph N/A   Unknown
11:56 AM 39.0 °F 29.9 °F 28.0 °F 65% 29.91 in - SSE 17.3 mph - N/A   Unknown
12:56 PM 39.9 °F 29.0 °F 26.1 °F 58% 29.86 in - SSW 26.5 mph 33.4 mph N/A   Unknown
1:56 PM 39.9 °F 30.8 °F 25.0 °F 55% 29.83 in - South 18.4 mph - N/A   Unknown
2:56 PM 39.0 °F 28.5 °F 26.1 °F 60% 29.83 in - South 23.0 mph 28.8 mph N/A   Unknown
3:56 PM 37.0 °F 27.4 °F 28.0 °F 70% 29.81 in - South 17.3 mph - N/A   Unknown
4:56 PM 34.0 °F 23.4 °F 30.0 °F 85% 29.77 in - South 17.3 mph - 0.01 in   Unknown
5:56 PM 34.0 °F 22.4 °F 33.1 °F 96% 29.72 in - South 20.7 mph - N/A   Unknown
6:56 PM 34.0 °F 22.4 °F 32.0 °F 92% 29.68 in - South 20.7 mph 27.6 mph N/A   Unknown
7:56 PM 33.1 °F 20.9 °F 32.0 °F 96% 29.68 in - South 21.9 mph 27.6 mph N/A   Unknown
8:56 PM 33.1 °F 23.0 °F 32.0 °F 96% 29.65 in - South 15.0 mph - N/A   Unknown
9:56 PM 33.1 °F 22.2 °F 32.0 °F 96% 29.61 in - South 17.3 mph - N/A   Unknown
10:56 PM 33.1 °F 21.5 °F 32.0 °F 96% 29.58 in - South 19.6 mph - 0.02 in   Unknown
11:56 PM 33.1 °F 24.9 °F 33.1 °F 100% 29.57 in - South 10.4 mph - N/A   Unknown